Terminal Aerodrome Forecast
Issued by NWS Charleston, WV

Current Version | Previous Version | Text Only | Print | Product List | Glossary Off
Versions: 1 2 3 4 5 6 7 8 9 10 11 12 13 14 15 16 17 18 19 20 21 22 23

000
FTUS41 KRLX 150900 AAB
TAFHTS
TAF AMD
KHTS 150919Z 1509/1606 00000KT 1/4SM FG VV001
     FM151300 00000KT 3SM BR SCT200
     FM151400 00000KT 6SM BR FEW090
     FM151500 VRB03KT P6SM SCT035=

USA.gov is the U.S. government's official web portal to all federal, state and local government web resources and services.